Location: *
(24.1434°N, 56.8729°E)
Time: 21:57:42
(UTC+00:00)

YAOGAN 1 - Pass Details

Date: 09 April 2020
Orbit: 618 x 620 km, 97.9° (Epoch: 24 May)

Event Time Altitude Azimuth Distance (km) Brightness Sun altitude
Rises 15:11:45 0° 174° (S) 2,880 5.8 -9.7°
Reaches altitude 10° 15:13:57 10° 178° (S) 1,977 5.0 -10.2°
Maximum altitude 15:18:12 62° 259° (WSW) 695 3.1 -11.2°
Drops below altitude 10° 15:22:29 10° 340° (NNW) 1,986 5.6 -12.1°
Sets 15:24:42 0° 344° (NNW) 2,895 6.4 -12.6°
